Volver al catálogo

FREGAT DEB

ActivoLEO
NORAD 47336·DEBRIS·🇷🇺 Russia

Lanzado Jul 18, 2011 desde Baikonur Cosmodrome

Loading…

Próximos Pases (próximas 24 horas)

TLE

ActualizadoSource: Space-Track

Época: Sep 13, 2026, 17:33 UTC

1 47336U 11037NT  26256.73172696  .00062032  00000-0  40308-1 0  9996
2 47336  51.6486  26.9116 0799547 170.1866 191.5732 13.03752298250443

Sigue FREGAT DEB en tiempo real con AllMySat

Download on the App Store